Location: Taipo
(41.0000°S, 175.9500°E)
Time: 08:35:46
(UTC+00:00)

SMAP - Visible Passes

Search period start: 17 May 2025 00:00
Search period end: 27 May 2025 00:00
Orbit: 681 x 683 km, 98.1° (Epoch: 16 May)

Date Brightness Start Highest point End Pass type
(mag) Time Alt. Az. Time Alt. Az. Time Alt. Az.
17 May 4.1 05:45:49 10° SE 05:49:44 25° E 05:53:37 10° NNE visible
17 May 4.7 07:22:51 10° S 07:27:05 33° WSW 07:31:15 10° NW visible
17 May 5.1 16:48:51 10° ENE 16:52:43 26° ESE 16:56:38 10° SSE visible
17 May 3.8 18:25:43 10° NNW 18:29:55 32° W 18:34:10 10° SSW visible
18 May 3.1 06:21:42 10° SSE 06:26:24 60° ENE 06:31:01 10° N visible
18 May 5.8 08:00:30 10° SSW 08:03:12 15° WSW 08:05:54 10° W visible
18 May 3.6 17:24:24 10° NNE 17:28:59 59° ESE 17:33:40 10° S visible
19 May 3.7 06:58:12 10° S 07:02:51 57° WSW 07:07:26 10° NNW visible
19 May 5.8 16:25:51 10° E 16:28:38 16° ESE 16:31:26 10° SSE visible
19 May 3.1 18:00:51 10° N 18:05:28 58° W 18:10:09 10° SSW visible
20 May 3.8 05:57:39 10° SSE 06:01:57 33° E 06:06:11 10° NNE visible
20 May 5.1 07:35:15 10° SSW 07:39:07 25° WSW 07:42:57 10° WNW visible
20 May 4.6 17:00:33 10° NE 17:04:46 34° ESE 17:09:02 10° S visible
20 May 4.2 18:38:19 10° NNW 18:42:08 24° W 18:46:00 10° SW visible
21 May 3.0 06:33:47 10° SSE 06:38:32 81° ENE 06:43:14 10° N visible
21 May 6.1 08:13:32 10° SW 08:15:11 12° WSW 08:16:50 10° W visible
21 May 3.1 17:36:25 10° NNE 17:41:06 79° ESE 17:45:51 10° S visible
22 May 4.5 05:34:02 10° SE 05:37:24 19° E 05:40:46 10° NE visible
22 May 4.2 07:10:27 10° S 07:14:56 43° WSW 07:19:21 10° NW visible
22 May 5.5 16:37:12 10° ENE 16:40:37 20° ESE 16:44:04 10° SSE visible
22 May 3.4 18:13:10 10° N 18:17:38 43° W 18:22:09 10° SSW visible
23 May 3.4 06:09:35 10° SSE 06:14:08 45° E 06:18:37 10° N visible
23 May 5.5 07:47:45 10° SSW 07:51:08 20° WSW 07:54:29 10° WNW visible
23 May 4.1 17:12:22 10° NE 17:16:49 44° ESE 17:21:20 10° S visible
23 May 4.5 18:51:05 10° NW 18:54:22 19° W 18:57:40 10° SW visible
24 May 3.2 06:45:55 10° S 06:50:40 77° WSW 06:55:20 10° NNW visible
24 May 6.0 16:14:44 10° E 16:16:34 12° ESE 16:18:23 10° SE visible
24 May 3.0 17:48:31 10° N 17:53:13 78° WNW 17:57:58 10° SSW visible
25 May 4.1 05:45:43 10° SE 05:49:38 25° E 05:53:30 10° NNE visible
25 May 4.7 07:22:45 10° S 07:26:59 33° WSW 07:31:09 10° NW visible
25 May 5.1 16:48:45 10° ENE 16:52:37 26° ESE 16:56:32 10° SSE visible
25 May 3.8 18:25:37 10° NNW 18:29:48 32° W 18:34:04 10° SSW visible
26 May 3.1 06:21:36 10° SSE 06:26:18 60° ENE 06:30:55 10° N visible
26 May 5.8 08:00:24 10° SSW 08:03:06 15° WSW 08:05:47 10° W visible
26 May 3.6 17:24:17 10° NNE 17:28:53 59° ESE 17:33:33 10° S visible
